Location: Buckland
(65.9785°N, 161.1281°W)
Time: 20:39:32
(UTC+00:00)

PRISM - Pass Details

Date: 24 January 2021
Orbit: 565 x 584 km, 98.2° (Epoch: 06 March)

Event Time Altitude Azimuth Distance (km) Brightness Sun altitude
Rises 18:03:06 0° 35° (NE) 2,786 ? -10.8°
Reaches altitude 10° 18:06:54 10° 358° (N) 1,889 ? -10.5°
Maximum altitude 18:07:53 11° 345° (NNW) 1,841 ? -10.4°
Drops below altitude 10° 18:08:48 10° 331° (NNW) 1,887 ? -10.3°
Enters shadow 18:09:06 10° 327° (NNW) 1,918 ? -10.3°
